Flight Information

DEPARTURE
ASPEN, CO
Elevation:
7837
Runways:
15/33 - 8006x100 - ASPH-G
ATIS:
120.4
Clearance Delivery:
123.75
Ground:
121.9
Tower:
ASPEN TOWER 118.85
DESTINATION
,
Elevation:
TPA:
1000 (est.)


6179.2 NM79° True-12° Var66° HDG

Flight Plan:
(click to file on line)

1. Type
2. Aircraft Identification
3. Aircraft Type / Special Equipment
4. True Airspeed
kts
5. Departure Airport
(ICAO code)
6. Arriving Airport
(ICAO code)
7. Cruising Altitude
ft
8. Alternate Airport
(ICAO code)
9. Route of Flight
10. Remarks


00:00:00 Departure ATIS: Destination ATIS:

Clearance Limit:
Route:
Altitude: Expect in minutes
Frequency:
Transponder: (7500 Hijack / 7600 Lost Comms / 7700 Emergency)


KASE 101553Z VRB03KT 10SM CLR 22/M06 A3041 RMK AO2 SLP167 T02221056
Time: 2020-07-10T15:53:00Z
1594398161
Winds: variable
Visibility: 10.0 sm
Clouds (AGL): CLR
Temperature: 22.2 C
Dew Point: -5.6 C
Pressure: 30.410433 in Hgbr


Notes:

Data extracted from FAA Digital Chart Supplement. Effective: 0901Z Thursday, May 21, 2020 to 0901Z Thursday, Jul 16, 2020
Current ATIS data is provided courtisy of PilotEdge.